Time,TemperatureF,DewpointF,PressureIn,WindDirection,WindDirectionDegrees,WindSpeedMPH,WindSpeedGustMPH,Humidity,HourlyPrecipIn,Conditions,Clouds,dailyrainin,SoftwareType,DateUTC
2013-04-30 00:00:00,47.0,39.0,30.16,WNW,300,16.0,-999.0,74,-99.99,,,-99.99,,2013-04-30 00:00:00,
2013-04-30 00:21:00,47.0,39.0,30.16,WNW,300,16.0,-999.0,74,-99.99,,,-99.99,,2013-04-30 00:21:00,
2013-04-30 00:31:00,47.0,39.0,30.16,WNW,300,16.0,-999.0,74,-99.99,,,-99.99,,2013-04-30 00:31:00,
2013-04-30 00:41:00,47.0,39.0,30.16,WNW,300,16.0,-999.0,74,-99.99,,,-99.99,,2013-04-30 00:41:00,
2013-04-30 00:51:00,47.0,39.0,30.16,WNW,300,16.0,-999.0,74,-99.99,,,-99.99,,2013-04-30 00:51:00,
2013-04-30 01:00:00,46.0,35.0,30.25,North,360,15.0,-999.0,66,-99.99,,,-99.99,,2013-04-30 01:00:00,
2013-04-30 01:21:00,46.0,35.0,30.25,North,360,15.0,-999.0,66,-99.99,,,-99.99,,2013-04-30 01:21:00,
2013-04-30 01:31:00,46.0,35.0,30.25,North,360,15.0,-999.0,66,-99.99,,,-99.99,,2013-04-30 01:31:00,
2013-04-30 01:41:00,46.0,35.0,30.25,North,360,15.0,-999.0,66,-99.99,,,-99.99,,2013-04-30 01:41:00,
2013-04-30 01:51:00,46.0,35.0,30.25,North,360,15.0,-999.0,66,-99.99,,,-99.99,,2013-04-30 01:51:00,
2013-04-30 02:00:00,47.0,36.0,30.24,North,360,11.0,-999.0,64,-99.99,,,-99.99,,2013-04-30 02:00:00,
2013-04-30 02:21:00,47.0,36.0,30.24,North,360,11.0,-999.0,64,-99.99,,,-99.99,,2013-04-30 02:21:00,
2013-04-30 02:31:00,47.0,36.0,30.24,North,360,11.0,-999.0,64,-99.99,,,-99.99,,2013-04-30 02:31:00,
2013-04-30 02:41:00,47.0,36.0,30.24,North,360,11.0,-999.0,64,-99.99,,,-99.99,,2013-04-30 02:41:00,
2013-04-30 02:51:00,47.0,36.0,30.24,North,360,11.0,-999.0,64,-99.99,,,-99.99,,2013-04-30 02:51:00,
2013-04-30 03:00:00,46.0,37.0,30.23,North,360,11.0,-999.0,68,-99.99,,,-99.99,,2013-04-30 03:00:00,
2013-04-30 03:21:00,46.0,37.0,30.23,North,360,11.0,-999.0,68,-99.99,,,-99.99,,2013-04-30 03:21:00,
2013-04-30 03:32:00,46.0,37.0,30.23,North,360,11.0,-999.0,68,-99.99,,,-99.99,,2013-04-30 03:32:00,
2013-04-30 03:42:00,46.0,37.0,30.23,North,360,11.0,-999.0,68,-99.99,,,-99.99,,2013-04-30 03:42:00,
2013-04-30 03:52:00,46.0,37.0,30.23,North,360,11.0,-999.0,68,-99.99,,,-99.99,,2013-04-30 03:52:00,
2013-04-30 04:00:00,46.0,37.0,30.22,North,360,9.0,-999.0,71,-99.99,,,-99.99,,2013-04-30 04:00:00,
2013-04-30 04:22:00,46.0,37.0,30.22,North,360,9.0,-999.0,71,-99.99,,,-99.99,,2013-04-30 04:22:00,
2013-04-30 04:32:00,46.0,37.0,30.22,North,360,9.0,-999.0,71,-99.99,,,-99.99,,2013-04-30 04:32:00,
2013-04-30 04:42:00,46.0,37.0,30.22,North,360,9.0,-999.0,71,-99.99,,,-99.99,,2013-04-30 04:42:00,
2013-04-30 04:52:00,46.0,37.0,30.22,North,360,9.0,-999.0,71,-99.99,,,-99.99,,2013-04-30 04:52:00,
2013-04-30 05:21:00,46.0,38.0,30.23,North,360,25.0,-999.0,73,-99.99,,,-99.99,,2013-04-30 05:21:00,
2013-04-30 05:31:00,46.0,38.0,30.23,North,360,25.0,-999.0,73,-99.99,,,-99.99,,2013-04-30 05:31:00,
2013-04-30 06:00:00,48.0,36.0,30.23,WNW,290,22.0,-999.0,62,-99.99,,,-99.99,,2013-04-30 06:00:00,
2013-04-30 06:21:00,48.0,37.0,30.24,North,360,26.0,-999.0,66,-99.99,,,-99.99,,2013-04-30 06:21:00,
2013-04-30 06:31:00,48.0,36.0,30.23,WNW,290,22.0,-999.0,62,-99.99,,,-99.99,,2013-04-30 06:31:00,
2013-04-30 06:41:00,48.0,36.0,30.23,WNW,290,22.0,-999.0,62,-99.99,,,-99.99,,2013-04-30 06:41:00,
2013-04-30 06:51:00,48.0,36.0,30.23,WNW,290,22.0,-999.0,62,-99.99,,,-99.99,,2013-04-30 06:51:00,
2013-04-30 07:00:00,47.0,35.0,30.23,North,360,30.0,-999.0,62,-99.99,,,-99.99,,2013-04-30 07:00:00,
2013-04-30 07:21:00,47.0,35.0,30.23,North,360,30.0,-999.0,62,-99.99,,,-99.99,,2013-04-30 07:21:00,
2013-04-30 07:31:00,47.0,35.0,30.23,North,360,30.0,-999.0,62,-99.99,,,-99.99,,2013-04-30 07:31:00,
2013-04-30 07:41:00,47.0,35.0,30.23,North,360,30.0,-999.0,62,-99.99,,,-99.99,,2013-04-30 07:41:00,
2013-04-30 07:52:00,47.0,35.0,30.23,North,360,30.0,-999.0,62,-99.99,,,-99.99,,2013-04-30 07:52:00,
2013-04-30 08:00:00,46.0,34.0,30.24,North,360,23.0,-999.0,63,-99.99,,,-99.99,,2013-04-30 08:00:00,
2013-04-30 08:21:00,46.0,34.0,30.24,North,360,23.0,-999.0,63,-99.99,,,-99.99,,2013-04-30 08:21:00,
2013-04-30 08:31:00,46.0,34.0,30.24,North,360,23.0,-999.0,63,-99.99,,,-99.99,,2013-04-30 08:31:00,
2013-04-30 08:41:00,46.0,34.0,30.24,North,360,23.0,-999.0,63,-99.99,,,-99.99,,2013-04-30 08:41:00,
2013-04-30 08:51:00,46.0,34.0,30.24,North,360,23.0,-999.0,63,-99.99,,,-99.99,,2013-04-30 08:51:00,
2013-04-30 09:00:00,44.0,33.0,30.14,SW,230,21.0,-999.0,64,-99.99,,,-99.99,,2013-04-30 09:00:00,
2013-04-30 09:21:00,44.0,33.0,30.14,SW,230,21.0,-999.0,64,-99.99,,,-99.99,,2013-04-30 09:21:00,
2013-04-30 09:32:00,44.0,33.0,30.14,SW,230,21.0,-999.0,64,-99.99,,,-99.99,,2013-04-30 09:32:00,
2013-04-30 09:42:00,44.0,33.0,30.14,SW,230,21.0,-999.0,64,-99.99,,,-99.99,,2013-04-30 09:42:00,
2013-04-30 09:52:00,44.0,33.0,30.14,SW,230,21.0,-999.0,64,-99.99,,,-99.99,,2013-04-30 09:52:00,
2013-04-30 10:22:00,45.0,33.0,30.24,North,360,22.0,-999.0,63,-99.99,,,-99.99,,2013-04-30 10:22:00,
2013-04-30 10:32:00,45.0,33.0,30.24,North,360,22.0,-999.0,63,-99.99,,,-99.99,,2013-04-30 10:32:00,
2013-04-30 11:21:00,45.0,34.0,30.24,North,360,16.0,-999.0,63,-99.99,,,-99.99,,2013-04-30 11:21:00,
2013-04-30 11:31:00,45.0,34.0,30.24,North,360,16.0,-999.0,63,-99.99,,,-99.99,,2013-04-30 11:31:00,
2013-04-30 13:21:00,45.0,-99.9,30.25,North,360,14.0,-999.0,-999,-99.99,,,-99.99,,2013-04-30 13:21:00,
2013-04-30 13:31:00,45.0,-99.9,30.25,North,360,14.0,-999.0,-999,-99.99,,,-99.99,,2013-04-30 13:31:00,
2013-04-30 14:21:00,44.0,-99.9,30.28,North,-999,2.0,-999.0,-999,-99.99,,,-99.99,,2013-04-30 14:21:00,
2013-04-30 14:31:00,44.0,-99.9,30.28,North,-999,2.0,-999.0,-999,-99.99,,,-99.99,,2013-04-30 14:31:00,
2013-04-30 15:21:00,45.0,32.0,30.29,North,360,5.0,-999.0,61,-99.99,,,-99.99,,2013-04-30 15:21:00,
2013-04-30 15:32:00,45.0,32.0,30.29,North,360,5.0,-999.0,61,-99.99,,,-99.99,,2013-04-30 15:32:00,
2013-04-30 16:22:00,45.0,33.0,30.31,North,360,7.0,-999.0,63,-99.99,,,-99.99,,2013-04-30 16:22:00,
2013-04-30 16:32:00,45.0,33.0,30.31,North,360,7.0,-999.0,63,-99.99,,,-99.99,,2013-04-30 16:32:00,
2013-04-30 18:22:00,48.0,34.0,30.24,North,360,8.0,-999.0,58,-99.99,,,-99.99,,2013-04-30 18:22:00,
2013-04-30 18:32:00,48.0,34.0,30.24,North,360,8.0,-999.0,58,-99.99,,,-99.99,,2013-04-30 18:32:00,
2013-04-30 19:21:00,48.0,33.0,30.31,North,360,8.0,-999.0,55,-99.99,,,-99.99,,2013-04-30 19:21:00,
2013-04-30 19:31:00,48.0,33.0,30.31,North,360,8.0,-999.0,55,-99.99,,,-99.99,,2013-04-30 19:31:00,
2013-04-30 20:21:00,50.0,34.0,30.32,North,360,5.0,-999.0,53,-99.99,,,-99.99,,2013-04-30 20:21:00,
2013-04-30 20:32:00,50.0,34.0,30.32,North,360,5.0,-999.0,53,-99.99,,,-99.99,,2013-04-30 20:32:00,
2013-04-30 21:00:00,49.0,32.0,30.33,North,0,3.0,-999.0,51,-99.99,,,-99.99,,2013-04-30 21:00:00,
2013-04-30 21:21:00,49.0,32.0,30.33,North,0,3.0,-999.0,51,-99.99,,,-99.99,,2013-04-30 21:21:00,
2013-04-30 21:32:00,49.0,32.0,30.33,North,0,3.0,-999.0,51,-99.99,,,-99.99,,2013-04-30 21:32:00,
2013-04-30 21:42:00,49.0,32.0,30.33,North,0,3.0,-999.0,51,-99.99,,,-99.99,,2013-04-30 21:42:00,
2013-04-30 21:52:00,49.0,32.0,30.33,North,0,3.0,-999.0,51,-99.99,,,-99.99,,2013-04-30 21:52:00,
2013-04-30 22:00:00,50.0,-99.9,30.36,North,360,5.0,-999.0,-999,-99.99,,,-99.99,,2013-04-30 22:00:00,
2013-04-30 22:23:00,50.0,-99.9,30.36,North,360,5.0,-999.0,-999,-99.99,,,-99.99,,2013-04-30 22:23:00,
2013-04-30 22:33:00,50.0,-99.9,30.36,North,360,5.0,-999.0,-999,-99.99,,,-99.99,,2013-04-30 22:33:00,
2013-04-30 22:42:00,50.0,-99.9,30.36,North,360,5.0,-999.0,-999,-99.99,,,-99.99,,2013-04-30 22:42:00,
2013-04-30 22:53:00,50.0,-99.9,30.36,North,360,5.0,-999.0,-999,-99.99,,,-99.99,,2013-04-30 22:53:00,
2013-04-30 23:21:00,51.0,34.0,30.36,North,360,3.0,-999.0,50,-99.99,,,-99.99,,2013-04-30 23:21:00,
2013-04-30 23:32:00,51.0,34.0,30.36,North,360,3.0,-999.0,50,-99.99,,,-99.99,,2013-04-30 23:32:00,